When you browse on this site, cookies collect data to enhance your experience and personalize the content and advertising you see.
Visit our Privacy Policy to learn more. By continuing to use the site, you agree to this use of cookies and data.
  • In Hungary
  • List of Countries
  • For 7 days
  • Water Temperature
  • Satellite Maps
  • Weather Map
  • News
  • Weather Widgets
  • user-avatar
    Login

    Hourly Weather Talagante

    Today, 25 March, Monday

    Time Temperature Precipitation Wind Pressure Humidity
    00:00 +20°C° 0 mm 1 mps 732 mmHg 50%
    01:00 +19°C° 0 mm 1 mps 732 mmHg 56%
    02:00 +19°C° 0 mm 1 mps 732 mmHg 56%
    03:00 +19°C° 0 mm 1 mps 731 mmHg 55%
    04:00 +19°C° 0 mm 1 mps 731 mmHg 55%
    05:00 +20°C° 0 mm 1 mps 731 mmHg 50%
    06:00 +21°C° 0 mm 1 mps 732 mmHg 46%
    07:00 +21°C° 0 mm 1 mps 732 mmHg 41%
    08:00 +24°C° 0 mm 1 mps 732 mmHg 34%
    09:00 +27°C° 0 mm 1 mps 732 mmHg 27%
    10:00 +30°C° 0 mm 2 mps 732 mmHg 19%
    11:00 +31°C° 0 mm 2 mps 732 mmHg 18%
    12:00 +33°C° 0 mm 3 mps 732 mmHg 17%
    13:00 +34°C° 0 mm 3 mps 732 mmHg 16%
    14:00 +33°C° 0 mm 3 mps 732 mmHg 18%
    15:00 +33°C° 0 mm 3 mps 732 mmHg 21%
    16:00 +31°C° 0 mm 3 mps 732 mmHg 23%
    17:00 +28°C° 0 mm 2 mps 732 mmHg 30%
    18:00 +25°C° 0 mm 2 mps 732 mmHg 37%
    19:00 +23°C° 0 mm 1 mps 733 mmHg 44%
    20:00 +22°C° 0 mm 1 mps 733 mmHg 46%
    21:00 +21°C° 0 mm 1 mps 733 mmHg 48%
    22:00 +21°C° 0 mm 1 mps 733 mmHg 50%
    23:00 +20°C° 0 mm 1 mps 732 mmHg 49%

    Tomorrow, 26 March, Tuesday

    Time Temperature Precipitation Wind Pressure Humidity
    00:00 +20°C° 0 mm 1 mps 732 mmHg 49%
    01:00 +20°C° 0 mm 1 mps 732 mmHg 49%
    02:00 +20°C° 0 mm 1 mps 731 mmHg 48%
    03:00 +20°C° 0 mm 1 mps 731 mmHg 47%
    04:00 +19°C° 0 mm 1 mps 731 mmHg 47%
    05:00 +21°C° 0 mm 1 mps 731 mmHg 43%
    06:00 +22°C° 0 mm 1 mps 731 mmHg 39%
    07:00 +23°C° 0 mm 1 mps 731 mmHg 35%
    08:00 +25°C° 0 mm 1 mps 732 mmHg 29%
    09:00 +28°C° 0 mm 1 mps 732 mmHg 23%
    10:00 +31°C° 0 mm 1 mps 732 mmHg 17%
    11:00 +32°C° 0 mm 2 mps 732 mmHg 15%
    12:00 +34°C° 0 mm 2 mps 731 mmHg 14%
    13:00 +35°C° 0 mm 3 mps 731 mmHg 13%
    14:00 +35°C° 0 mm 3 mps 731 mmHg 15%
    15:00 +34°C° 0 mm 3 mps 731 mmHg 17%
    16:00 +33°C° 0 mm 3 mps 731 mmHg 20%
    17:00 +29°C° 0 mm 2 mps 731 mmHg 27%
    18:00 +26°C° 0 mm 2 mps 731 mmHg 34%
    19:00 +23°C° 0 mm 1 mps 731 mmHg 41%
    20:00 +22°C° 0 mm 1 mps 731 mmHg 42%
    21:00 +22°C° 0 mm 1 mps 731 mmHg 44%
    22:00 +21°C° 0 mm 1 mps 731 mmHg 45%
    23:00 +21°C° 0 mm 1 mps 731 mmHg 45%

    Day after tomorrow, 27 March, Wednesday

    Time Temperature Precipitation Wind Pressure Humidity
    00:00 +21°C° 0 mm 1 mps 731 mmHg 45%
    01:00 +21°C° 0 mm 1 mps 731 mmHg 44%
    02:00 +20°C° 0 mm 1 mps 731 mmHg 44%
    03:00 +20°C° 0 mm 1 mps 730 mmHg 44%
    04:00 +20°C° 0 mm 1 mps 730 mmHg 44%
    05:00 +21°C° 0 mm 1 mps 731 mmHg 41%
    06:00 +22°C° 0 mm 1 mps 731 mmHg 37%
    07:00 +23°C° 0 mm 1 mps 731 mmHg 34%
    08:00 +26°C° 0 mm 1 mps 732 mmHg 29%
    09:00 +28°C° 0 mm 2 mps 732 mmHg 24%
    10:00 +31°C° 0 mm 2 mps 732 mmHg 18%
    11:00 +32°C° 0 mm 2 mps 732 mmHg 18%
    12:00 +34°C° 0 mm 3 mps 732 mmHg 17%
    13:00 +35°C° 0 mm 3 mps 732 mmHg 17%
    14:00 +34°C° 0 mm 3 mps 732 mmHg 19%
    15:00 +33°C° 0 mm 3 mps 732 mmHg 22%
    16:00 +31°C° 0 mm 3 mps 732 mmHg 24%
    17:00 +28°C° 0 mm 3 mps 732 mmHg 31%
    18:00 +25°C° 0 mm 2 mps 732 mmHg 39%
    19:00 +23°C° 0 mm 2 mps 733 mmHg 46%
    20:00 +22°C° 0 mm 1 mps 733 mmHg 48%
    21:00 +21°C° 0 mm 1 mps 733 mmHg 50%
    22:00 +21°C° 0 mm 1 mps 733 mmHg 52%
    23:00 +21°C° 0 mm 1 mps 733 mmHg 52%

    28 March, Thursday

    Time Temperature Precipitation Wind Pressure Humidity
    00:00 +21°C° 0 mm 1 mps 732 mmHg 52%
    01:00 +20°C° 0 mm 1 mps 732 mmHg 52%
    02:00 +20°C° 0 mm 1 mps 732 mmHg 51%
    03:00 +20°C° 0 mm 1 mps 732 mmHg 51%
    04:00 +20°C° 0 mm 1 mps 732 mmHg 51%
    05:00 +21°C° 0 mm 1 mps 732 mmHg 48%
    06:00 +21°C° 0 mm 1 mps 733 mmHg 45%
    07:00 +22°C° 0 mm 1 mps 733 mmHg 43%
    08:00 +25°C° 0 mm 1 mps 734 mmHg 36%
    09:00 +28°C° 0 mm 1 mps 734 mmHg 30%
    10:00 +30°C° 0 mm 2 mps 734 mmHg 23%
    11:00 +31°C° 0 mm 2 mps 734 mmHg 21%
    12:00 +34°C° 0 mm 3 mps 734 mmHg 20%
    13:00 +35°C° 0 mm 3 mps 734 mmHg 18%
    14:00 +34°C° 0 mm 3 mps 734 mmHg 20%
    15:00 +33°C° 0 mm 3 mps 734 mmHg 21%
    16:00 +31°C° 0 mm 3 mps 733 mmHg 23%
    17:00 +28°C° 0 mm 3 mps 733 mmHg 28%
    18:00 +26°C° 0 mm 2 mps 733 mmHg 34%
    19:00 +23°C° 0 mm 1 mps 733 mmHg 40%
    20:00 +22°C° 0 mm 1 mps 733 mmHg 41%
    21:00 +22°C° 0 mm 1 mps 733 mmHg 42%
    22:00 +21°C° 0 mm 1 mps 733 mmHg 43%
    23:00 +21°C° 0 mm 1 mps 733 mmHg 43%

    29 March, Friday

    Time Temperature Precipitation Wind Pressure Humidity
    00:00 +21°C° 0 mm 1 mps 733 mmHg 43%
    01:00 +21°C° 0 mm 1 mps 732 mmHg 43%
    02:00 +20°C° 0 mm 1 mps 732 mmHg 43%
    03:00 +20°C° 0 mm 1 mps 732 mmHg 44%
    04:00 +20°C° 0 mm 1 mps 732 mmHg 44%
    05:00 +21°C° 0 mm 1 mps 732 mmHg 41%
    06:00 +20°C° 0 mm 0 mps 733 mmHg 38%
    07:00 +21°C° 0 mm 0 mps 733 mmHg 35%
    08:00 +25°C° 0 mm 1 mps 733 mmHg 29%
    09:00 +28°C° 0 mm 2 mps 733 mmHg 24%
    10:00 +30°C° 0 mm 2 mps 734 mmHg 19%
    11:00 +31°C° 0 mm 3 mps 733 mmHg 18%
    12:00 +33°C° 0 mm 3 mps 733 mmHg 16%
    13:00 +34°C° 0 mm 3 mps 733 mmHg 15%
    14:00 +33°C° 0 mm 3 mps 733 mmHg 17%
    15:00 +33°C° 0 mm 3 mps 733 mmHg 18%
    16:00 +31°C° 0 mm 3 mps 733 mmHg 20%
    17:00 +28°C° 0 mm 3 mps 733 mmHg 26%
    18:00 +25°C° 0 mm 2 mps 734 mmHg 33%
    19:00 +22°C° 0 mm 1 mps 734 mmHg 40%
    20:00 +22°C° 0 mm 1 mps 734 mmHg 42%
    21:00 +21°C° 0 mm 1 mps 734 mmHg 43%
    22:00 +20°C° 0 mm 1 mps 734 mmHg 45%
    23:00 +20°C° 0 mm 1 mps 734 mmHg 43%

    30 March, Saturday

    Time Temperature Precipitation Wind Pressure Humidity
    00:00 +20°C° 0 mm 1 mps 733 mmHg 41%
    01:00 +20°C° 0 mm 1 mps 733 mmHg 39%
    02:00 +20°C° 0 mm 1 mps 733 mmHg 38%
    03:00 +20°C° 0 mm 1 mps 733 mmHg 36%
    04:00 +20°C° 0 mm 1 mps 733 mmHg 35%
    05:00 +21°C° 0 mm 1 mps 733 mmHg 31%
    06:00 +22°C° 0 mm 1 mps 733 mmHg 28%
    07:00 +23°C° 0 mm 1 mps 733 mmHg 25%
    08:00 +27°C° 0 mm 1 mps 733 mmHg 20%
    09:00 +30°C° 0 mm 1 mps 733 mmHg 15%
    10:00 +34°C° 0 mm 1 mps 733 mmHg 10%
    11:00 +35°C° 0 mm 1 mps 733 mmHg 9%
    12:00 +37°C° 0 mm 2 mps 733 mmHg 8%
    13:00 +38°C° 0 mm 2 mps 732 mmHg 7%
    14:00 +38°C° 0 mm 2 mps 732 mmHg 7%
    15:00 +37°C° 0 mm 2 mps 732 mmHg 8%
    16:00 +37°C° 0 mm 3 mps 732 mmHg 8%
    17:00 +34°C° 0 mm 2 mps 732 mmHg 12%
    18:00 +29°C° 0 mm 2 mps 732 mmHg 16%
    19:00 +26°C° 0 mm 1 mps 732 mmHg 20%
    20:00 +25°C° 0 mm 1 mps 732 mmHg 23%
    21:00 +24°C° 0 mm 1 mps 732 mmHg 26%
    22:00 +23°C° 0 mm 1 mps 732 mmHg 28%
    23:00 +23°C° 0 mm 1 mps 732 mmHg 28%
    Show more